Location: Brad
(46.1333°N, 22.7833°E)
Time: 06:48:56
(UTC+00:00)

CZ-4 R/B - Visible Passes

Search period start: 24 September 2023 00:00
Search period end: 04 October 2023 00:00
Orbit: 521 x 583 km, 97.7° (Epoch: 23 September)

Date Brightness Start Highest point End Pass type
(mag) Time Alt. Az. Time Alt. Az. Time Alt. Az.
24 Sep 2.5 18:09:19 10° S 18:13:02 42° W 18:16:43 10° NNW visible
25 Sep 2.3 18:05:36 10° S 18:09:22 46° W 18:13:05 10° NNW visible
26 Sep 2.1 18:01:54 10° S 18:05:41 51° W 18:09:27 10° NNW visible
27 Sep 1.8 17:58:11 10° S 18:01:59 57° W 18:05:47 10° NNW visible
28 Sep 1.6 17:54:28 10° S 17:58:18 63° W 18:02:06 10° NNW visible
29 Sep 1.5 17:50:45 10° S 17:54:36 70° WSW 17:58:25 10° NNW visible
30 Sep 1.3 17:47:06 10° S 17:50:53 78° WSW 17:54:43 10° NNW visible
01 Oct 1.2 17:43:36 12° SSE 17:47:10 86° WSW 17:51:00 10° NNW visible
02 Oct 1.1 17:40:05 13° SSE 17:43:26 86° ENE 17:47:16 10° NNW visible
03 Oct 1.1 17:36:34 15° SSE 17:39:43 77° ENE 17:43:32 10° N visible
